Find STAR VIBE

NORAD ID: 55009 Int'l Des: 2023-001 Owner: SCANW Country: PL operational
LEOCIRCULARRETROGRADESSO

リアルタイム位置

3D地球を読み込み中...

STAR VIBEについて

説明を読み込み中...

次回通過

Passes for default location (London). Set your location on the main map for personalized predictions.

高度履歴

Loading altitude history...

軌道要素

1 55009U 23001A 26106.25223962 .00008522 00000-0 20895-3 0 9995
2 55009 97.3224 170.5299 0005027 353.8176 6.3008 15.40959195182688
Epoch: Apr 16, 2026 • Age: 8 hours

現在のステータス

高度 457.4 km
速度 7.64 km/s
衛星直下点 76.46°N, 36.08°W
打ち上げ日 Jan 3, 2023
運用期間 3.2 years
タイプ other

技術仕様

分類 Payload
質量 10.00 kg
乾燥質量 10.00 kg
総質量 10.00 kg
長さ 0.30 m
直径 0.20 m
スパン 0.30 m
形状 Box+ 2 pan
製造者 GOS
バスタイプ Cubesat 6U
フェーズステータス In Orbit
所有者/国 SCANW/PL

Most Searched